Home > Weather > Penza > Past weeks

Flag for Russia Past Weather in Penza, Russia — Yesterday and Last 2 Weeks

Now
82 °F

Clear.


Feels Like: 81 °F
Forecast: 60 / 77 °F
Wind: 1 mph from North

Location: Saratov / Tsentralny

Current Time: Aug 25, 2016 at 7:58:26 PM

Latest Report: Aug 25, 2016 at 7:30 PM


Visibility: 10 mi

Pressure: 29.92 "Hg

Humidity: 30%

Dew Point: 48 °F

Location of PenzaLocation

Past Weather in Penza — Graph

°F

Penza Temperature Yesterday

Maximum temperature yesterday: 90 °F (at 2:00 PM)
Minimum temperature yesterday: 66 °F (at 5:00 AM)
Average temperature yesterday: 79 °F

High & Low Weather Summary for the Past Weeks

 TemperatureHumidityPressure
High99 °F (Aug 21, 4:00 PM)94% (Aug 15, 4:00 AM)30.27 "Hg (Aug 15, 4:00 AM)
Low61 °F (Aug 16, 1:00 AM)15% (Aug 24, 2:00 PM)29.74 "Hg (Aug 14, 8:00 PM)
Average79 °F49%30.04 "Hg
* Reported Aug 10 6:00 PM — Aug 25 6:30 PM, Penza, Weather by CustomWeather, © 2016

Note: Actual official high and low records may vary slightly from our data, if they occured in-between our weather recording intervals... More about our weather records

Advertising

Penza Weather History for the Previous 24 Hours

Scroll right to see more
 ConditionsComfort  
Time TempWeatherWind HumidityBarometerVisibility
6:30 PM
Thu, Aug 25
86 °FSunny.3 mph25%29.92 "Hg10 mi
6:00 PM86 °FSunny.3 mph25%29.92 "Hg10 mi
5:30 PM88 °FSunny.6 mph19%29.92 "Hg10 mi
5:00 PM88 °FSunny.6 mph19%29.92 "Hg10 mi
4:30 PM90 °FSunny.8 mph17%29.95 "Hg10 mi
4:00 PM90 °FSunny.10 mph17%29.95 "Hg10 mi
3:30 PM90 °FSunny.8 mph17%29.98 "Hg10 mi
3:00 PM90 °FSunny.8 mph17%29.98 "Hg10 mi
2:30 PM88 °FSunny.6 mph21%29.98 "Hg10 mi
2:00 PM88 °FSunny.6 mph21%29.98 "Hg10 mi
1:30 PM88 °FSunny.6 mph22%30.01 "Hg10 mi
1:00 PM88 °FSunny.8 mph22%30.01 "Hg10 mi
12:30 PM84 °FSunny.8 mph23%30.01 "Hg10 mi
12:00 PM84 °FSunny.10 mph23%30.01 "Hg10 mi
11:30 AM82 °FSunny.8 mph28%30.01 "Hg10 mi
11:00 AM82 °FSunny.8 mph28%30.01 "Hg10 mi
10:30 AM79 °FSunny.8 mph34%30.04 "Hg10 mi
10:00 AM79 °FSunny.8 mph34%30.04 "Hg10 mi
9:30 AM77 °FSunny.8 mph36%30.04 "Hg10 mi
9:00 AM77 °FSunny.8 mph36%30.04 "Hg10 mi
8:30 AM70 °FSunny.6 mph46%30.04 "Hg10 mi
8:00 AM70 °FSunny.6 mph46%30.04 "Hg10 mi
7:30 AM68 °FSunny.6 mph56%30.01 "Hg10 mi
7:00 AM68 °FSunny.1 mph56%30.01 "Hg10 mi
6:30 AM63 °FSunny.1 mph59%30.01 "Hg10 mi
6:00 AM63 °FSunny.1 mph59%30.01 "Hg10 mi
5:30 AM64 °FSunny.1 mph49%30.04 "Hg10 mi
5:00 AM64 °FSunny.1 mph49%30.04 "Hg10 mi
4:30 AM64 °FPassing clouds.3 mph49%30.01 "HgN/A
4:00 AM64 °FPassing clouds.3 mph49%30.01 "HgN/A
3:30 AM68 °FClear.6 mph35%30.01 "Hg10 mi
3:00 AM68 °FClear.10 mph35%30.01 "Hg10 mi
2:00 AM72 °FClear.6 mph31%30.04 "Hg10 mi
1:00 AM72 °FClear.6 mph31%30.04 "Hg10 mi
12:30 AM73 °FClear.3 mph31%30.04 "Hg10 mi
12:00 AM73 °FClear.6 mph31%30.04 "Hg10 mi
11:30 PM
Wed, Aug 24
75 °FClear.6 mph27%30.04 "Hg10 mi
11:00 PM75 °FClear.3 mph27%30.04 "Hg10 mi
10:30 PM75 °FClear.6 mph29%30.04 "Hg10 mi
10:00 PM75 °FClear.6 mph29%30.04 "Hg10 mi
9:30 PM79 °FClear.10 mph28%30.07 "Hg10 mi
9:00 PM79 °FClear.1 mph28%30.07 "Hg10 mi
8:30 PM79 °FClear.1 mph30%30.07 "Hg10 mi
8:00 PM79 °FClear.1 mph30%30.07 "Hg10 mi
7:30 PM82 °FClear.1 mph26%30.07 "Hg10 mi
7:00 PM82 °FClear.1 mph26%30.07 "Hg10 mi
Weather by CustomWeather, © 2016

See weather overviewHow to use our weather pages